Weather History for Daviess Cnty AP, Washington,, IN

Change the Weather History Date:

Wednesday, January 15, 2014

  Actual Average (KLWV) Record (KLWV)
Temperature  
Mean Temperature 26 °F 31 °F  
Max Temperature 29 °F 39 °F 57 °F (2007)
Min Temperature 21 °F 23 °F -1 °F (2009)
Degree Days  
Heating Degree Days 39 34  
Month to date heating degree days 510  
Since 1 July heating degree days 2309  
Cooling Degree Days 0 0  
Month to date cooling degree days 0  
Year to date cooling degree days 0  
Moisture  
Dew Point 17 °F    
Average Humidity 71    
Maximum Humidity 83    
Minimum Humidity 59    
Precipitation  
Precipitation 0.00 in 0.08 in 0.45 in (2007)
Month to date precipitation 1.35  
Year to date precipitation 1.35  
Sea Level Pressure  
Sea Level Pressure 30.09 in    
Wind  
Wind Speed 11 mph (WNW)    
Max Wind Speed 17 mph    
Max Gust Speed 23 mph    
Visibility 10 miles    
Events Snow    
T = Trace of Precipitation, MM = Missing Value Source: NWS Daily Summary

Daily Weather History Graph

Daily Weather History Graph

Search for Another Location

Airport:

Trip Planner

Search our weather history database for the weather conditions in past years. The results will help you decide how hot, cold, wet, or windy it might be!

Date:

Astronomy

Jan. 15, 2014 Rise Set
Actual Time 8:05 AM EST 5:51 PM EST
Civil Twilight 7:35 AM EST 6:20 PM EST
Nautical Twilight 7:03 AM EST 6:53 PM EST
Astronomical Twilight 6:31 AM EST 7:24 PM EST
Moon 5:47 PM EST (1/15) 7:21 AM EST (1/15)
Length of Visible Light 10h 44m
Length of Day
9h 46m
Full, 100% of the Moon is Illuminated
Jan 15
Full
Jan 15
Full
Jan 24
Last Quarter
Jan 30
New
Feb 6
First Quarter

Hourly Weather History & Observations

Time (EST) Temp. Windchill Dew Point Humidity Pressure Visibility Wind Dir Wind Speed Gust Speed Precip Events Conditions
12:15 AM 31.1 °F 20.5 °F 22.3 °F 70% 30.00 in 10.0 mi West 15.0 mph 19.6 mph N/A   Scattered Clouds
12:35 AM 30.2 °F 18.9 °F 18.1 °F 61% 30.00 in 10.0 mi West 16.1 mph 23.0 mph N/A   Clear
12:55 AM 29.8 °F 19.3 °F 17.4 °F 60% 30.00 in 10.0 mi West 13.8 mph 20.7 mph N/A   Clear
1:15 AM 29.7 °F 20.1 °F 16.7 °F 59% 30.00 in 10.0 mi West 11.5 mph 19.6 mph N/A   Scattered Clouds
1:35 AM 29.1 °F 20.6 °F 17.4 °F 62% 30.00 in 10.0 mi West 9.2 mph - N/A   Scattered Clouds
1:55 AM 28.9 °F 21.1 °F 19.0 °F 67% 30.01 in 10.0 mi West 8.1 mph - N/A   Mostly Cloudy
2:15 AM 29.3 °F 20.8 °F 18.3 °F 64% 30.01 in 10.0 mi West 9.2 mph - N/A   Overcast
2:35 AM 29.3 °F 21.5 °F 18.3 °F 64% 30.01 in 10.0 mi West 8.1 mph - N/A   Overcast
2:55 AM 29.3 °F 19.1 °F 18.7 °F 65% 30.02 in 10.0 mi West 12.7 mph 19.6 mph N/A   Overcast
3:15 AM 29.3 °F 19.6 °F 18.7 °F 65% 30.03 in 10.0 mi West 11.5 mph 20.7 mph N/A   Overcast
3:35 AM 29.1 °F 18.4 °F 19.6 °F 68% 30.03 in 10.0 mi WNW 13.8 mph 19.6 mph N/A   Overcast
3:55 AM 28.9 °F 18.2 °F 21.2 °F 73% 30.04 in 10.0 mi NW 13.8 mph 17.3 mph N/A   Overcast
4:15 AM 27.9 °F 17.8 °F 21.4 °F 77% 30.04 in 5.0 mi WNW 11.5 mph - N/A Snow Light Snow
4:35 AM 27.5 °F 15.4 °F 21.0 °F 77% 30.04 in 7.0 mi NW 16.1 mph 20.7 mph N/A Snow Light Snow
4:55 AM 27.5 °F 16.8 °F 19.9 °F 73% 30.04 in 10.0 mi NW 12.7 mph - N/A   Overcast
5:15 AM 27.1 °F 14.5 °F 18.9 °F 71% 30.05 in 10.0 mi WNW 17.3 mph 20.7 mph N/A   Overcast
5:35 AM 26.4 °F 15.0 °F 18.3 °F 71% 30.05 in 10.0 mi NW 13.8 mph 17.3 mph N/A   Overcast
5:55 AM 26.1 °F 15.0 °F 16.7 °F 68% 30.06 in 10.0 mi WNW 12.7 mph 17.3 mph N/A   Overcast
6:15 AM 25.7 °F 16.4 °F 16.5 °F 68% 30.06 in 10.0 mi NW 9.2 mph - N/A   Overcast
6:35 AM 26.1 °F 16.8 °F 17.2 °F 69% 30.07 in 10.0 mi NW 9.2 mph - N/A   Overcast
6:55 AM 26.2 °F 16.4 °F 17.6 °F 70% 30.07 in 10.0 mi NW 10.4 mph - N/A   Overcast
7:15 AM 26.1 °F 15.0 °F 18.3 °F 73% 30.07 in 10.0 mi NW 12.7 mph - N/A Snow Light Snow
7:35 AM 26.1 °F 17.6 °F 18.9 °F 74% 30.07 in 10.0 mi WNW 8.1 mph - N/A Snow Light Snow
7:55 AM 26.2 °F 14.7 °F 16.2 °F 66% 30.08 in 10.0 mi WNW 13.8 mph - N/A   Overcast
8:15 AM 26.1 °F 16.8 °F 17.4 °F 70% 30.08 in 10.0 mi NW 9.2 mph - N/A   Overcast
8:35 AM 26.1 °F 16.8 °F 18.1 °F 72% 30.09 in 10.0 mi NW 9.2 mph - N/A   Overcast
8:55 AM 25.9 °F 14.8 °F 18.0 °F 72% 30.10 in 10.0 mi NW 12.7 mph - N/A Snow Light Snow
9:15 AM 26.1 °F 15.6 °F 17.4 °F 70% 30.10 in 10.0 mi NW 11.5 mph - N/A   Overcast
9:35 AM 26.4 °F 15.5 °F 16.9 °F 67% 30.12 in 10.0 mi NW 12.7 mph - N/A   Overcast
9:55 AM 26.2 °F 14.2 °F 16.7 °F 67% 30.12 in 10.0 mi NW 15.0 mph 18.4 mph N/A   Overcast
10:15 AM 26.2 °F 14.2 °F 17.4 °F 69% 30.13 in 10.0 mi NW 15.0 mph 18.4 mph N/A   Overcast
10:35 AM 26.1 °F 15.6 °F 18.3 °F 73% 30.14 in 10.0 mi NW 11.5 mph - N/A Snow Light Snow
10:55 AM 26.2 °F 17.8 °F 18.7 °F 73% 30.14 in 10.0 mi NNW 8.1 mph - N/A Snow Light Snow
11:15 AM 26.8 °F 17.1 °F 19.4 °F 74% 30.14 in 10.0 mi WNW 10.4 mph - N/A Snow Light Snow
11:35 AM 25.5 °F 15.5 °F 20.7 °F 82% 30.15 in 2.5 mi NW 10.4 mph - N/A Snow Light Snow
11:55 AM 26.1 °F 15.0 °F 21.0 °F 81% 30.14 in 2.5 mi NW 12.7 mph 17.3 mph N/A Snow Light Snow
12:15 PM 25.5 °F 15.5 °F 19.4 °F 78% 30.14 in 7.0 mi NW 10.4 mph - N/A Snow Light Snow
12:35 PM 27.0 °F 18.0 °F 18.5 °F 70% 30.13 in 10.0 mi NW 9.2 mph - N/A   Scattered Clouds
12:55 PM 27.1 °F 20.7 °F 17.6 °F 67% 30.12 in 10.0 mi WNW 5.8 mph - N/A   Scattered Clouds
1:15 PM 26.6 °F 17.5 °F 17.8 °F 69% 30.11 in 10.0 mi NW 9.2 mph - N/A   Mostly Cloudy
1:35 PM 25.9 °F 17.4 °F 17.8 °F 71% 30.10 in 10.0 mi NNW 8.1 mph - N/A Snow Light Snow
1:55 PM 26.4 °F 17.3 °F 18.5 °F 72% 30.11 in 10.0 mi WNW 9.2 mph 16.1 mph N/A Snow Light Snow
2:15 PM 26.1 °F 16.2 °F 18.7 °F 74% 30.11 in 10.0 mi WNW 10.4 mph - N/A Snow Light Snow
2:35 PM 26.1 °F 16.2 °F 18.7 °F 74% 30.11 in 10.0 mi WNW 10.4 mph - N/A Snow Light Snow
2:55 PM 26.2 °F 15.2 °F 16.2 °F 66% 30.11 in 10.0 mi WNW 12.7 mph - N/A   Overcast
3:15 PM 25.7 °F 16.4 °F 15.4 °F 65% 30.11 in 10.0 mi WNW 9.2 mph 18.4 mph N/A   Overcast
3:35 PM 25.3 °F 14.7 °F 17.2 °F 71% 30.12 in 10.0 mi NW 11.5 mph - N/A   Overcast
3:55 PM 25.3 °F 15.3 °F 17.2 °F 71% 30.12 in 10.0 mi WNW 10.4 mph 16.1 mph N/A   Overcast
4:15 PM 25.2 °F 15.1 °F 15.1 °F 66% 30.13 in 10.0 mi WNW 10.4 mph - N/A   Overcast
4:35 PM 24.6 °F 15.1 °F 14.2 °F 65% 30.14 in 10.0 mi WNW 9.2 mph 18.4 mph N/A   Overcast
4:55 PM 24.4 °F 14.2 °F 14.5 °F 66% 30.14 in 10.0 mi WNW 10.4 mph 16.1 mph N/A   Overcast
5:15 PM 24.4 °F 14.2 °F 15.3 °F 68% 30.15 in 10.0 mi WNW 10.4 mph - N/A   Overcast
5:35 PM 24.3 °F 14.6 °F 14.7 °F 67% 30.15 in 10.0 mi WNW 9.2 mph - N/A   Overcast
5:55 PM 23.9 °F 14.2 °F 14.7 °F 68% 30.14 in 10.0 mi NW 9.2 mph - N/A   Overcast
6:15 PM 23.9 °F 15.0 °F 14.2 °F 66% 30.13 in 10.0 mi WNW 8.1 mph - N/A   Overcast
6:35 PM 23.7 °F 15.6 °F 14.0 °F 66% 30.14 in 10.0 mi WNW 6.9 mph - N/A   Overcast
6:55 PM 23.9 °F 15.8 °F 14.9 °F 69% 30.14 in 10.0 mi West 6.9 mph - N/A   Overcast
7:15 PM 23.9 °F 18.0 °F 15.1 °F 69% 30.13 in 10.0 mi West 4.6 mph - N/A   Overcast
7:35 PM 23.5 °F 16.4 °F 14.0 °F 67% 30.13 in 10.0 mi West 5.8 mph - N/A   Overcast
7:55 PM 22.6 °F 15.3 °F 14.4 °F 71% 30.13 in 10.0 mi West 5.8 mph - N/A   Mostly Cloudy
8:15 PM 22.1 °F 15.9 °F 14.0 °F 71% 30.14 in 10.0 mi West 4.6 mph - N/A   Scattered Clouds
8:35 PM 21.0 °F - 14.9 °F 77% 30.13 in 10.0 mi Calm Calm - N/A   Clear
8:55 PM 21.2 °F - 14.5 °F 75% 30.13 in 10.0 mi Calm Calm - N/A   Clear
9:15 PM 21.7 °F - 15.1 °F 76% 30.12 in 10.0 mi Calm Calm - N/A   Clear
9:35 PM 21.2 °F - 15.4 °F 78% 30.12 in 10.0 mi Calm Calm - N/A   Clear
9:55 PM 21.2 °F - 16.9 °F 83% 30.12 in 10.0 mi Calm Calm - N/A   Clear
10:15 PM 21.2 °F 16.4 °F 16.3 °F 82% 30.11 in 10.0 mi South 3.5 mph - N/A   Clear
10:35 PM 21.0 °F 14.6 °F 16.3 °F 82% 30.10 in 10.0 mi South 4.6 mph - N/A   Clear
10:55 PM 21.0 °F 16.2 °F 16.5 °F 83% 30.10 in 10.0 mi South 3.5 mph - N/A   Clear
11:15 PM 21.2 °F 13.6 °F 16.3 °F 82% 30.09 in 10.0 mi SSE 5.8 mph - N/A   Clear
11:35 PM 21.0 °F 13.4 °F 16.2 °F 81% 30.07 in 10.0 mi South 5.8 mph - N/A   Clear
11:55 PM 21.0 °F 11.4 °F 16.2 °F 81% 30.06 in 10.0 mi SSE 8.1 mph - N/A   Clear